Weather in Talmenka

Russia / Novosibirsk Oblast     54°42′33″N   83°16′43″E
temp.,
°C
wind,
m/s
gust,
m/s
humid.,
%
clouds,
%
prec.,
mm/h
press.,
hPa
HPBL,
m
22 june, tue
tue2201:00+8e2291100 0.0 100731
04:00+8ene3596100 0.0 100593
07:00+10ene2498100 2.6 1005150
10:00+10ne3798100 5.9 1005350
13:00+9s7129498 11.8 1006593
16:00+14sw467298 0.3 10061071
19:00+12w1285100 1.1 1008370
22:00+10nnw3697100 0.4 1009233
23 june, wed
wed2301:00+9nw4997100 0.5 1010443
04:00+8w3796100 0.1 1012273
07:00+9w359285 0.1 1013200
10:00+11wsw348371 1.1 1013419
13:00+13wsw3469100 2.0 1013938
16:00+13s237567 1.3 1012588
19:00+13ssw3582100 3.1 1011675
22:00+10se2291100 0.4 101028
24 june, thu
thu2401:00+10ese2293100 0.5 100825
04:00+9e3795100 0.0 1006146
07:00+9e41094100 0.7 1004387
10:00+9ene71396100 6.3 1002549
13:00+11se61193100 7.8 1002752
16:00+10ese6992100 0.7 1002874
19:00+9e51097100 1.9 1002616
22:00+9se4798100 2.1 1003417
25 june, fri
fri2501:00+9ese3598100 2.5 1003339
04:00+9ne2398100 0.3 1003159
07:00+9wnw3499100 0.5 1005239
10:00+9w4699100 0.4 1006396
13:00+11wsw3592100 0.8 1007477
16:00+10wsw4897100 0.8 1008488
19:00+11wsw479495 1.4 1009486
22:00+9sw489799 0.1 1010264
26 june, sat
sat2601:00+10sw489884 0.3 1010358
04:00+9sw4798100 0.3 1010320
07:00+10sw3798100 0.6 1011390
10:00+11sw459499 0.2 1011456
13:00+13sw5790100 2.0 1011737
16:00+11wsw4997100 1.7 1012448
19:00+11sw3797100 3.5 1012359
22:00+11s3798100 2.1 1012195